Regional Weather Roundup
Issued by NWS

Home | Current Version | Previous Version | Text Only | Print | Product List | Glossary On
Versions: 1 2 3 4 5 6 7 8 9 10 11 12 13 14 15 16 17 18 19 20 21 22 23 24 25 26 27 28 29 30 31 32 33 34 35 36 37 38 39 40 41 42 43 44 45 46 47 48 49 50
000
ASUS43 KLMK 300910
RWRKY
KENTUCKY REGIONAL WEATHER ROUNDUP
NATIONAL WEATHER SERVICE LOUISVILLE KY
500 AM EDT SUN AUG 30 2015

NOTE "FAIR" INDICATES FEW OR NO CLOUDS BELOW 12,000 FEET
WITH NO SIGNIFICANT WEATHER AND/OR OBSTRUCTIONS TO VISIBILITY.

KYZ001>023-026-027-061>063-070>075-301000-
WESTERN AND SOUTH CENTRAL KENTUCKY

CITY           SKY/WX    TMP DP  RH WIND       PRES   REMARKS
PADUCAH        CLOUDY    73  67  81 S6        30.04R
HENDERSON      CLOUDY    72  68  88 CALM      30.02S
OWENSBORO      CLOUDY    72  69  90 S7        30.05S
HOPKINSVILLE   CLOUDY    71  67  89 SE3       30.07R
BOWLING GREEN  MOCLDY    67  65  93 E3        30.09S
GLASGOW        PTCLDY    67  67 100 CALM      30.10S
$$

KYZ024-025-028>034-038-045-046-053-301000-
NORTH CENTRAL KENTUCKY

CITY           SKY/WX    TMP DP  RH WIND       PRES   REMARKS
LOUISVILLE/SDF CLOUDY    73  66  78 S6        30.06S
LOUISVILLE/LOU PTCLDY    71  67  87 S3        30.07S
FORT KNOX      PTCLDY    68  66  92 S5        30.06S
$$

KYZ035>037-039>044-047>052-055>060-089>105-301000-
NORTHEAST KENTUCKY

CITY           SKY/WX    TMP DP  RH WIND       PRES   REMARKS
LEXINGTON      CLEAR     68  65  90 S6        30.11S
COVINGTON      MOCLDY    65  64  97 S6        30.07F
FRANKFORT      CLEAR     69  66  90 S6        30.09S
$$

KYZ054-064>069-076>088-106>120-301000-
SOUTHEAST KENTUCKY

CITY           SKY/WX    TMP DP  RH WIND       PRES   REMARKS
JACKSON        CLEAR     67  63  87 CALM      30.14S
LONDON         PTCLDY    67  62  84 CALM      30.14R
SOMERSET       PTCLDY    64  64 100 CALM      30.13S
MIDDLESBORO    MOCLDY    63  63  99 CALM      30.15S
MONTICELLO     CLOUDY    67  67 100 CALM      30.14S FOG
$$



USA.gov is the U.S. government's official web portal to all federal, state and local government web resources and services.